Location: Hains Lake
(37.8540°N, 99.8578°W)
Time: 03:42:52
(UTC+00:00)

Vanguard 1 - Pass Details

Date: 05 December 2021
Orbit: 652 x 3830 km, 34.2° (Epoch: 21 January)

Event Time Altitude Azimuth Distance (km) Brightness Sun altitude
Rises 02:44:03 0° 188° (S) 6,065 14.2 -39.6°
Reaches altitude 10° 02:49:00 10° 174° (S) 5,540 13.8 -40.5°
Enters shadow 02:54:29 19° 156° (SSE) 5,254 13.5 -41.6°
